George, South Africa

12:47 PM SAST on August 28, 2016 (GMT +0200)
George

Weather History for 68828 - November, 2013

Change the Weather History Date:

Thursday, November 14, 2013

  Actual Average Record
Temperature  
Mean Temperature 64 °F -  
Max Temperature 67 °F 70 °F - ()
Min Temperature 60 °F 55 °F - ()
Degree Days  
Heating Degree Days 2    
Growing Degree Days 14 (Base 50)    
Moisture  
Dew Point 59 °F    
Average Humidity 84    
Maximum Humidity 94    
Minimum Humidity 70    
Precipitation  
Precipitation 0.03 in - - ()
Sea Level Pressure  
Sea Level Pressure 29.88 in    
Wind  
Wind Speed 6 mph ()    
Max Wind Speed 12 mph    
Max Gust Speed -    
Visibility 6.9 miles    
Events Rain    
T = Trace of Precipitation, MM = Missing Value Source: Averaged Metar Reports

Daily Weather History Graph

Daily Weather History Graph

Search for Another Location

Airport or City:

Trip Planner

Search our weather history database for the weather conditions in past years. The results will help you decide how hot, cold, wet, or windy it might be!

Date:

Astronomy

Nov. 14, 2013 Rise Set
Actual Time 5:19 AM SAST 7:11 PM SAST
Civil Twilight 4:51 AM SAST 7:38 PM SAST
Nautical Twilight 4:18 AM SAST 8:12 PM SAST
Astronomical Twilight 3:43 AM SAST 8:47 PM SAST
Moon 4:17 PM SAST (11/14) 3:11 AM SAST (11/14)
Length of Visible Light 14h 47m
Length of Day
13h 52m
Waxing Gibbous, 89% of the Moon is Illuminated
Nov 14
Waxing Gibbous
Nov 17
Full
Nov 25
Last Quarter
Dec 3
New
Dec 9
First Quarter

Hourly Weather History & Observations

Time (SAST) Temp. Dew Point Humidity Pressure Visibility Wind Dir Wind Speed Gust Speed Precip Events Conditions
12:00 AM 66.2 °F 62.6 °F 88% 29.86 in 5.6 mi SW 4.6 mph - N/A   Mostly Cloudy
1:00 AM 66.2 °F 64.4 °F 94% 29.86 in 3.7 mi SSW 6.9 mph - N/A   Drizzle
2:00 AM 65 °F 62 °F 88% 29.83 in 6 mi SSW 6.9 mph - -  
3:00 AM 64.4 °F 62.6 °F 94% 29.80 in 4.3 mi SW 5.8 mph - N/A   Drizzle
4:00 AM 64.4 °F 60.8 °F 88% 29.80 in 5.0 mi West 5.8 mph - N/A   Light Drizzle
5:00 AM 63 °F 61 °F 90% 29.83 in 6 mi WNW 5.8 mph - - Rain Light Rain
6:00 AM 64.4 °F 60.8 °F 88% 29.83 in 6.2 mi WNW 5.8 mph - N/A   Mostly Cloudy
7:00 AM 64.4 °F 59.0 °F 83% 29.83 in 6.2 mi West 6.9 mph - N/A   Mostly Cloudy
8:00 AM 66 °F 60 °F 76% 29.86 in 12 mi WNW 6.9 mph - -   Mostly Cloudy
8:00 AM 66.2 °F 60.8 °F 83% 29.83 in 6.2 mi WNW 6.9 mph - N/A   Mostly Cloudy
9:00 AM 66.2 °F 59.0 °F 78% 29.86 in 6.2 mi WSW 9.2 mph - N/A   Mostly Cloudy
10:00 AM 66.2 °F 57.2 °F 73% 29.86 in 6.2 mi WSW 8.1 mph - N/A   Mostly Cloudy
11:00 AM 66 °F 58 °F 70% 29.88 in 12 mi SSW 10.4 mph - -   Mostly Cloudy
11:00 AM 66.2 °F 59.0 °F 78% 29.86 in 6.2 mi SSW 10.4 mph - N/A   Mostly Cloudy
12:00 PM 64.4 °F 59.0 °F 83% 29.89 in 6.2 mi SSW 9.2 mph - N/A   Mostly Cloudy
1:00 PM 64.4 °F 60.8 °F 88% 29.86 in 6.2 mi SSW 9.2 mph - N/A   Mostly Cloudy
2:00 PM 64 °F 58 °F 76% 29.88 in 12 mi SSW 11.5 mph - -   Partly Cloudy
2:00 PM 64.4 °F 59.0 °F 83% 29.89 in 6.2 mi SSW 11.5 mph - N/A   Mostly Cloudy
3:00 PM 62.6 °F 57.2 °F 82% 29.86 in 6.2 mi SSW 11.5 mph - N/A   Mostly Cloudy
4:00 PM 62.6 °F 59.0 °F 88% 29.89 in 3.7 mi South 5.8 mph - N/A   Light Drizzle
5:00 PM 62 °F 58 °F 81% 29.91 in 12 mi 1.2 mph - -   Partly Cloudy
5:00 PM 62.6 °F 57.2 °F 82% 29.89 in 6.2 mi Variable 1.2 mph - N/A   Mostly Cloudy
6:00 PM 62.6 °F 57.2 °F 82% 29.92 in 6.2 mi SW 3.5 mph - N/A   Mostly Cloudy
7:00 PM 62.6 °F 57.2 °F 82% 29.95 in 6.2 mi Variable 2.3 mph - N/A   Mostly Cloudy
8:00 PM 62 °F 57 °F 79% 29.98 in 12 mi NNE 3.5 mph - -   Mostly Cloudy
8:00 PM 62.6 °F 57.2 °F 82% 29.95 in 6.2 mi NNE 3.5 mph - N/A   Mostly Cloudy
9:00 PM 60.8 °F 59.0 °F 94% 29.98 in 6.2 mi NNW 4.6 mph - N/A   Mostly Cloudy
10:00 PM 60.8 °F 57.2 °F 88% 29.98 in 6.2 mi NNW 4.6 mph - N/A   Overcast
11:00 PM 60.8 °F 57.2 °F 88% 30.01 in 6.2 mi NNW 4.6 mph - N/A   Overcast